Time,TemperatureF,DewpointF,PressureIn,WindDirection,WindDirectionDegrees,WindSpeedMPH,WindSpeedGustMPH,Humidity,HourlyPrecipIn,Conditions,Clouds,dailyrainin,SoftwareType,DateUTC
2013-09-29 00:01:00,65.8,56.9,30.02,South,177,3.0,3.0,73,0.00,,,0.00,Wunderground v.1.15,2013-09-29 04:01:00,
2013-09-29 00:05:00,65.6,57.1,30.02,SSE,160,3.0,5.0,74,0.00,,,0.00,Wunderground v.1.15,2013-09-29 04:05:00,
2013-09-29 00:09:00,65.4,56.9,30.02,SSE,164,3.0,5.0,74,0.00,,,0.00,Wunderground v.1.15,2013-09-29 04:09:00,
2013-09-29 00:11:00,65.2,57.1,30.02,SSE,154,3.0,5.0,75,0.00,,,0.00,Wunderground v.1.15,2013-09-29 04:11:00,
2013-09-29 00:12:00,65.2,57.1,30.02,SSE,155,3.0,5.0,75,0.00,,,0.00,Wunderground v.1.15,2013-09-29 04:12:00,
2013-09-29 00:15:00,65.0,56.9,30.02,SSE,154,3.0,5.0,75,0.00,,,0.00,Wunderground v.1.15,2013-09-29 04:15:00,
2013-09-29 00:17:00,64.9,57.2,30.02,SSE,162,3.0,5.0,76,0.00,,,0.00,Wunderground v.1.15,2013-09-29 04:17:00,
2013-09-29 00:19:00,64.7,57.0,30.02,SSE,159,3.0,5.0,76,0.00,,,0.00,Wunderground v.1.15,2013-09-29 04:19:00,
2013-09-29 00:22:00,64.6,56.9,30.02,SSE,160,3.0,5.0,76,0.00,,,0.00,Wunderground v.1.15,2013-09-29 04:22:00,
2013-09-29 00:25:00,64.5,56.8,30.02,SSE,160,3.0,5.0,76,0.00,,,0.00,Wunderground v.1.15,2013-09-29 04:25:00,
2013-09-29 00:27:00,64.3,56.9,30.02,SSE,152,3.0,5.0,77,0.00,,,0.00,Wunderground v.1.15,2013-09-29 04:27:00,
2013-09-29 00:29:00,63.9,56.9,30.02,SSE,152,3.0,5.0,78,0.00,,,0.00,Wunderground v.1.15,2013-09-29 04:29:00,
2013-09-29 00:31:00,63.6,56.6,30.02,SSE,152,3.0,3.0,78,0.00,,,0.00,Wunderground v.1.15,2013-09-29 04:31:00,
2013-09-29 00:35:00,62.8,56.5,30.02,SSE,152,3.0,5.0,80,0.00,,,0.00,Wunderground v.1.15,2013-09-29 04:35:00,
2013-09-29 00:37:00,62.4,56.5,30.03,SSE,152,3.0,5.0,81,0.00,,,0.00,Wunderground v.1.15,2013-09-29 04:37:00,
2013-09-29 00:39:00,62.2,56.6,30.02,SSE,152,3.0,5.0,82,0.00,,,0.00,Wunderground v.1.15,2013-09-29 04:39:00,
2013-09-29 00:41:00,62.2,56.6,30.02,SSE,152,3.0,5.0,82,0.00,,,0.00,Wunderground v.1.15,2013-09-29 04:41:00,
2013-09-29 00:42:00,62.3,56.7,30.02,SSE,152,3.0,5.0,82,0.00,,,0.00,Wunderground v.1.15,2013-09-29 04:42:00,
2013-09-29 00:45:00,62.3,56.7,30.02,SSE,152,3.0,5.0,82,0.00,,,0.00,Wunderground v.1.15,2013-09-29 04:45:00,
2013-09-29 00:47:00,62.3,56.7,30.02,SSE,152,2.0,5.0,82,0.00,,,0.00,Wunderground v.1.15,2013-09-29 04:47:00,
2013-09-29 00:49:00,62.3,56.7,30.02,SSE,153,2.0,5.0,82,0.00,,,0.00,Wunderground v.1.15,2013-09-29 04:49:00,
2013-09-29 00:51:00,62.2,56.6,30.02,SSE,153,3.0,3.0,82,0.00,,,0.00,Wunderground v.1.15,2013-09-29 04:51:00,
2013-09-29 00:52:00,62.2,56.6,30.02,SSE,152,3.0,5.0,82,0.00,,,0.00,Wunderground v.1.15,2013-09-29 04:52:00,
2013-09-29 00:55:00,62.1,56.5,30.02,SSE,153,3.0,5.0,82,0.00,,,0.00,Wunderground v.1.15,2013-09-29 04:55:00,
2013-09-29 00:57:00,62.0,56.8,30.02,SSE,152,3.0,5.0,83,0.00,,,0.00,Wunderground v.1.15,2013-09-29 04:57:00,
2013-09-29 01:01:00,61.7,56.5,30.02,SSE,153,2.0,5.0,83,0.00,,,0.00,Wunderground v.1.15,2013-09-29 05:01:00,
2013-09-29 01:03:00,61.5,56.3,30.02,SSE,152,2.0,5.0,83,0.00,,,0.00,Wunderground v.1.15,2013-09-29 05:03:00,
2013-09-29 01:07:00,61.3,56.4,30.02,SSE,153,2.0,5.0,84,0.00,,,0.00,Wunderground v.1.15,2013-09-29 05:07:00,
2013-09-29 01:09:00,61.2,56.7,30.02,SSE,152,2.0,5.0,85,0.00,,,0.00,Wunderground v.1.15,2013-09-29 05:09:00,
2013-09-29 01:15:00,61.4,56.5,30.02,SSE,152,2.0,5.0,84,0.00,,,0.00,Wunderground v.1.15,2013-09-29 05:15:00,
2013-09-29 01:17:00,61.3,56.4,30.03,SSE,152,2.0,5.0,84,0.00,,,0.00,Wunderground v.1.15,2013-09-29 05:17:00,
2013-09-29 01:19:00,61.2,56.3,30.03,SSE,152,2.0,5.0,84,0.00,,,0.00,Wunderground v.1.15,2013-09-29 05:19:00,
2013-09-29 01:21:00,61.0,56.1,30.03,SSE,153,2.0,5.0,84,0.00,,,0.00,Wunderground v.1.15,2013-09-29 05:21:00,
2013-09-29 01:23:00,60.8,56.3,30.03,SSE,152,2.0,5.0,85,0.00,,,0.00,Wunderground v.1.15,2013-09-29 05:23:00,
2013-09-29 01:27:00,60.5,56.0,30.03,SSE,152,2.0,5.0,85,0.00,,,0.00,Wunderground v.1.15,2013-09-29 05:27:00,
2013-09-29 01:29:00,60.4,56.2,30.03,SSE,152,2.0,5.0,86,0.00,,,0.00,Wunderground v.1.15,2013-09-29 05:29:00,
2013-09-29 01:33:00,60.1,55.9,30.03,SSE,152,2.0,5.0,86,0.00,,,0.00,Wunderground v.1.15,2013-09-29 05:33:00,
2013-09-29 01:34:00,60.0,56.1,30.03,SSE,152,2.0,5.0,87,0.00,,,0.00,Wunderground v.1.15,2013-09-29 05:34:00,
2013-09-29 01:41:00,60.0,56.1,30.03,SSE,152,2.0,5.0,87,0.00,,,0.00,Wunderground v.1.15,2013-09-29 05:41:00,
2013-09-29 01:43:00,60.0,56.1,30.03,SSE,152,2.0,5.0,87,0.00,,,0.00,Wunderground v.1.15,2013-09-29 05:43:00,
2013-09-29 01:47:00,60.2,56.3,30.03,SSE,153,2.0,5.0,87,0.00,,,0.00,Wunderground v.1.15,2013-09-29 05:47:00,
2013-09-29 01:49:00,60.4,56.5,30.03,SSE,152,2.0,5.0,87,0.00,,,0.00,Wunderground v.1.15,2013-09-29 05:49:00,
2013-09-29 01:51:00,60.8,56.6,30.03,SSE,160,2.0,2.0,86,0.00,,,0.00,Wunderground v.1.15,2013-09-29 05:51:00,
2013-09-29 01:53:00,61.1,56.6,30.03,SSE,160,2.0,5.0,85,0.00,,,0.00,Wunderground v.1.15,2013-09-29 05:53:00,
2013-09-29 01:54:00,61.3,56.4,30.03,SSE,161,2.0,5.0,84,0.00,,,0.00,Wunderground v.1.15,2013-09-29 05:54:00,
2013-09-29 02:01:00,61.2,56.3,30.02,SSE,158,2.0,5.0,84,0.00,,,0.00,Wunderground v.1.15,2013-09-29 06:01:00,
2013-09-29 02:03:00,60.8,55.9,30.02,SSE,158,3.0,5.0,84,0.00,,,0.00,Wunderground v.1.15,2013-09-29 06:03:00,
2013-09-29 02:07:00,60.2,56.0,30.02,SSE,158,2.0,5.0,86,0.00,,,0.00,Wunderground v.1.15,2013-09-29 06:07:00,
2013-09-29 02:11:00,60.1,56.2,30.02,SSE,153,2.0,5.0,87,0.00,,,0.00,Wunderground v.1.15,2013-09-29 06:11:00,
2013-09-29 02:13:00,60.3,56.1,30.02,SSE,153,2.0,5.0,86,0.00,,,0.00,Wunderground v.1.15,2013-09-29 06:13:00,
2013-09-29 02:17:00,60.5,56.3,30.02,SSE,153,3.0,5.0,86,0.00,,,0.00,Wunderground v.1.15,2013-09-29 06:17:00,
2013-09-29 02:19:00,60.6,56.1,30.02,SSE,153,3.0,5.0,85,0.00,,,0.00,Wunderground v.1.15,2013-09-29 06:19:00,
2013-09-29 02:25:00,60.4,56.2,30.02,SSE,153,2.0,5.0,86,0.00,,,0.00,Wunderground v.1.15,2013-09-29 06:25:00,
2013-09-29 02:29:00,59.9,56.0,30.02,SSE,153,2.0,5.0,87,0.00,,,0.00,Wunderground v.1.15,2013-09-29 06:29:00,
2013-09-29 02:31:00,59.7,55.8,30.02,SSE,153,2.0,5.0,87,0.00,,,0.00,Wunderground v.1.15,2013-09-29 06:31:00,
2013-09-29 02:35:00,59.4,56.2,30.02,SSE,153,2.0,5.0,89,0.00,,,0.00,Wunderground v.1.15,2013-09-29 06:35:00,
2013-09-29 02:36:00,59.3,56.1,30.02,SSE,153,2.0,5.0,89,0.00,,,0.00,Wunderground v.1.15,2013-09-29 06:36:00,
2013-09-29 02:39:00,59.2,56.3,30.02,SSE,153,2.0,5.0,90,0.00,,,0.00,Wunderground v.1.15,2013-09-29 06:39:00,
2013-09-29 02:43:00,59.2,56.3,30.02,SSE,153,2.0,5.0,90,0.00,,,0.00,Wunderground v.1.15,2013-09-29 06:43:00,
2013-09-29 02:44:00,59.3,56.4,30.02,SSE,153,2.0,5.0,90,0.00,,,0.00,Wunderground v.1.15,2013-09-29 06:44:00,
2013-09-29 02:46:00,59.4,56.5,30.02,SSE,153,1.0,5.0,90,0.00,,,0.00,Wunderground v.1.15,2013-09-29 06:46:00,
2013-09-29 02:51:00,59.6,56.7,30.02,SSE,153,1.0,5.0,90,0.00,,,0.00,Wunderground v.1.15,2013-09-29 06:51:00,
2013-09-29 02:53:00,59.9,57.0,30.02,SSE,167,2.0,5.0,90,0.00,,,0.00,Wunderground v.1.15,2013-09-29 06:53:00,
2013-09-29 02:57:00,60.3,57.0,30.02,SSE,166,2.0,5.0,89,0.00,,,0.00,Wunderground v.1.15,2013-09-29 06:57:00,
2013-09-29 03:01:00,60.5,56.9,30.02,SSE,166,2.0,5.0,88,0.00,,,0.00,Wunderground v.1.15,2013-09-29 07:01:00,
2013-09-29 03:05:00,60.5,57.2,30.01,SSE,158,2.0,5.0,89,0.00,,,0.00,Wunderground v.1.15,2013-09-29 07:05:00,
2013-09-29 03:11:00,60.2,56.9,30.01,SSE,159,2.0,5.0,89,0.00,,,0.00,Wunderground v.1.15,2013-09-29 07:11:00,
2013-09-29 03:15:00,60.0,56.7,30.01,SSE,158,1.0,5.0,89,0.00,,,0.00,Wunderground v.1.15,2013-09-29 07:15:00,
2013-09-29 03:19:00,59.9,56.6,30.01,SSE,158,1.0,5.0,89,0.00,,,0.00,Wunderground v.1.15,2013-09-29 07:19:00,
2013-09-29 03:21:00,59.9,57.0,30.01,SSE,158,1.0,5.0,90,0.00,,,0.00,Wunderground v.1.15,2013-09-29 07:21:00,
2013-09-29 03:23:00,59.8,56.9,30.01,SSE,158,2.0,5.0,90,0.00,,,0.00,Wunderground v.1.15,2013-09-29 07:23:00,
2013-09-29 03:26:00,59.9,57.0,30.01,South,179,2.0,5.0,90,0.00,,,0.00,Wunderground v.1.15,2013-09-29 07:26:00,
2013-09-29 03:29:00,60.0,57.1,30.01,SSE,166,2.0,5.0,90,0.00,,,0.00,Wunderground v.1.15,2013-09-29 07:29:00,
2013-09-29 03:31:00,60.2,56.9,30.01,SSE,166,1.0,1.0,89,0.00,,,0.00,Wunderground v.1.15,2013-09-29 07:31:00,
2013-09-29 03:33:00,60.3,57.0,30.01,SSE,166,1.0,5.0,89,0.00,,,0.00,Wunderground v.1.15,2013-09-29 07:33:00,
2013-09-29 03:36:00,60.5,57.2,30.01,SSE,166,1.0,5.0,89,0.00,,,0.00,Wunderground v.1.15,2013-09-29 07:36:00,
2013-09-29 03:38:00,60.5,57.2,30.01,SSE,166,1.0,5.0,89,0.00,,,0.00,Wunderground v.1.15,2013-09-29 07:38:00,
2013-09-29 03:41:00,60.6,57.3,30.01,SSE,166,2.0,5.0,89,0.00,,,0.00,Wunderground v.1.15,2013-09-29 07:41:00,
2013-09-29 03:46:00,60.7,57.4,30.00,SSE,155,2.0,5.0,89,0.00,,,0.00,Wunderground v.1.15,2013-09-29 07:46:00,
2013-09-29 03:49:00,60.7,57.4,30.00,SSE,155,2.0,5.0,89,0.00,,,0.00,Wunderground v.1.15,2013-09-29 07:49:00,
2013-09-29 03:51:00,60.7,57.1,30.00,SSE,155,1.0,5.0,88,0.00,,,0.00,Wunderground v.1.15,2013-09-29 07:51:00,
2013-09-29 03:53:00,60.8,57.5,30.00,SSE,155,1.0,5.0,89,0.00,,,0.00,Wunderground v.1.15,2013-09-29 07:53:00,
2013-09-29 03:57:00,60.9,57.3,30.00,SSE,167,1.0,5.0,88,0.00,,,0.00,Wunderground v.1.15,2013-09-29 07:57:00,
2013-09-29 03:59:00,61.0,57.4,30.00,SSE,167,1.0,5.0,88,0.00,,,0.00,Wunderground v.1.15,2013-09-29 07:59:00,
2013-09-29 04:01:00,61.1,57.5,30.00,SSE,167,1.0,5.0,88,0.00,,,0.00,Wunderground v.1.15,2013-09-29 08:01:00,
2013-09-29 04:03:00,61.2,57.6,30.00,SSE,167,1.0,5.0,88,0.00,,,0.00,Wunderground v.1.15,2013-09-29 08:03:00,
2013-09-29 04:05:00,61.2,57.6,30.00,SSE,167,1.0,5.0,88,0.00,,,0.00,Wunderground v.1.15,2013-09-29 08:05:00,
2013-09-29 04:07:00,61.3,57.7,30.00,SSE,167,1.0,5.0,88,0.00,,,0.00,Wunderground v.1.15,2013-09-29 08:07:00,
2013-09-29 04:09:00,61.3,57.7,30.00,SSE,167,1.0,5.0,88,0.00,,,0.00,Wunderground v.1.15,2013-09-29 08:09:00,
2013-09-29 04:13:00,61.3,57.7,30.00,SSE,167,1.0,5.0,88,0.00,,,0.00,Wunderground v.1.15,2013-09-29 08:13:00,
2013-09-29 04:15:00,61.3,57.7,29.99,SSE,167,1.0,5.0,88,0.00,,,0.00,Wunderground v.1.15,2013-09-29 08:15:00,
2013-09-29 04:21:00,61.3,57.7,30.00,SSE,167,1.0,5.0,88,0.00,,,0.00,Wunderground v.1.15,2013-09-29 08:21:00,
2013-09-29 04:23:00,61.3,57.7,30.00,SSE,167,1.0,5.0,88,0.00,,,0.00,Wunderground v.1.15,2013-09-29 08:23:00,
2013-09-29 04:28:00,61.5,57.6,30.00,SSE,167,0.0,5.0,87,0.00,,,0.00,Wunderground v.1.15,2013-09-29 08:28:00,
2013-09-29 04:33:00,61.9,57.7,30.00,South,179,0.0,5.0,86,0.00,,,0.00,Wunderground v.1.15,2013-09-29 08:33:00,
2013-09-29 04:35:00,62.5,57.9,30.00,South,189,1.0,5.0,85,0.00,,,0.00,Wunderground v.1.15,2013-09-29 08:35:00,
2013-09-29 04:36:00,63.1,58.2,30.00,SSW,195,1.0,5.0,84,0.00,,,0.00,Wunderground v.1.15,2013-09-29 08:36:00,
2013-09-29 04:41:00,64.1,58.1,30.00,South,178,2.0,5.0,81,0.00,,,0.00,Wunderground v.1.15,2013-09-29 08:41:00,
2013-09-29 04:47:00,64.8,58.5,30.00,SSE,166,2.0,5.0,80,0.00,,,0.00,Wunderground v.1.15,2013-09-29 08:47:00,
2013-09-29 04:53:00,65.0,58.3,29.99,SSE,154,3.0,5.0,79,0.00,,,0.00,Wunderground v.1.15,2013-09-29 08:53:00,
2013-09-29 04:55:00,64.9,58.2,29.99,SSE,152,3.0,5.0,79,0.00,,,0.00,Wunderground v.1.15,2013-09-29 08:55:00,
2013-09-29 04:58:00,64.4,58.1,29.99,SSE,152,3.0,5.0,80,0.00,,,0.00,Wunderground v.1.15,2013-09-29 08:58:00,
2013-09-29 05:01:00,64.1,58.5,29.99,SSE,147,3.0,5.0,82,0.00,,,0.00,Wunderground v.1.15,2013-09-29 09:01:00,
2013-09-29 05:03:00,63.8,58.2,29.99,SSE,147,3.0,5.0,82,0.00,,,0.00,Wunderground v.1.15,2013-09-29 09:03:00,
2013-09-29 05:05:00,63.5,58.2,29.99,SSE,149,3.0,5.0,83,0.00,,,0.00,Wunderground v.1.15,2013-09-29 09:05:00,
2013-09-29 05:07:00,63.3,57.7,29.99,South,176,3.0,5.0,82,0.00,,,0.00,Wunderground v.1.15,2013-09-29 09:07:00,
2013-09-29 05:09:00,63.4,57.8,29.99,South,175,3.0,5.0,82,0.00,,,0.00,Wunderground v.1.15,2013-09-29 09:09:00,
2013-09-29 05:11:00,63.6,58.0,29.99,SSW,201,2.0,5.0,82,0.00,,,0.00,Wunderground v.1.15,2013-09-29 09:11:00,
2013-09-29 05:15:00,64.9,57.9,29.99,SSW,210,4.0,8.0,78,0.00,,,0.00,Wunderground v.1.15,2013-09-29 09:15:00,
2013-09-29 05:17:00,65.7,57.9,29.99,SSW,207,5.0,8.0,76,0.00,,,0.00,Wunderground v.1.15,2013-09-29 09:17:00,
2013-09-29 05:21:00,66.4,57.9,29.99,SSW,211,6.0,8.0,74,0.00,,,0.00,Wunderground v.1.15,2013-09-29 09:21:00,
2013-09-29 05:23:00,66.5,58.0,29.99,SSW,208,6.0,8.0,74,0.00,,,0.00,Wunderground v.1.15,2013-09-29 09:23:00,
2013-09-29 05:27:00,66.7,57.8,29.99,SSW,202,5.0,8.0,73,0.00,,,0.00,Wunderground v.1.15,2013-09-29 09:27:00,
2013-09-29 05:30:00,66.7,58.1,29.99,South,172,5.0,5.0,74,0.00,,,0.00,Wunderground v.1.15,2013-09-29 09:30:00,
2013-09-29 05:35:00,66.6,58.1,29.99,South,172,4.0,5.0,74,0.00,,,0.00,Wunderground v.1.15,2013-09-29 09:35:00,
2013-09-29 05:37:00,66.5,58.0,29.99,South,178,4.0,6.0,74,0.00,,,0.00,Wunderground v.1.15,2013-09-29 09:37:00,
2013-09-29 05:38:00,66.5,58.0,29.99,South,185,4.0,6.0,74,0.00,,,0.00,Wunderground v.1.15,2013-09-29 09:38:00,
2013-09-29 05:40:00,66.5,58.0,29.99,SSE,167,4.0,5.0,74,0.00,,,0.00,Wunderground v.1.15,2013-09-29 09:40:00,
2013-09-29 05:43:00,66.4,57.9,29.99,SSE,152,3.0,5.0,74,0.00,,,0.00,Wunderground v.1.15,2013-09-29 09:43:00,
2013-09-29 05:47:00,66.3,57.8,29.99,South,172,4.0,5.0,74,0.00,,,0.00,Wunderground v.1.15,2013-09-29 09:47:00,
2013-09-29 05:49:00,66.2,57.7,29.99,South,187,4.0,5.0,74,0.00,,,0.00,Wunderground v.1.15,2013-09-29 09:49:00,
2013-09-29 05:51:00,66.2,58.0,29.99,South,183,4.0,5.0,75,0.00,,,0.00,Wunderground v.1.15,2013-09-29 09:51:00,
2013-09-29 05:53:00,66.3,57.8,29.99,SSW,210,4.0,6.0,74,0.00,,,0.00,Wunderground v.1.15,2013-09-29 09:53:00,
2013-09-29 05:59:00,66.3,57.8,29.99,SSE,165,4.0,6.0,74,0.00,,,0.00,Wunderground v.1.15,2013-09-29 09:59:00,
2013-09-29 06:03:00,66.3,57.8,29.99,SSW,204,4.0,6.0,74,0.00,,,0.00,Wunderground v.1.15,2013-09-29 10:03:00,
2013-09-29 06:05:00,66.2,58.0,29.99,SSE,167,4.0,6.0,75,0.00,,,0.00,Wunderground v.1.15,2013-09-29 10:05:00,
2013-09-29 06:11:00,66.1,57.9,29.99,SSE,160,4.0,4.0,75,0.00,,,0.00,Wunderground v.1.15,2013-09-29 10:11:00,
2013-09-29 06:13:00,66.1,57.9,29.99,SSE,165,3.0,4.0,75,0.00,,,0.00,Wunderground v.1.15,2013-09-29 10:13:00,
2013-09-29 06:15:00,65.9,57.7,29.99,South,173,3.0,4.0,75,0.00,,,0.00,Wunderground v.1.15,2013-09-29 10:15:00,
2013-09-29 06:19:00,65.9,58.1,29.99,South,189,3.0,4.0,76,0.00,,,0.00,Wunderground v.1.15,2013-09-29 10:19:00,
2013-09-29 06:21:00,65.8,58.0,29.99,South,174,3.0,3.0,76,0.00,,,0.00,Wunderground v.1.15,2013-09-29 10:21:00,
2013-09-29 06:23:00,65.8,58.0,29.99,SSE,164,3.0,3.0,76,0.00,,,0.00,Wunderground v.1.15,2013-09-29 10:23:00,
2013-09-29 06:25:00,65.8,58.0,29.99,South,187,3.0,3.0,76,0.00,,,0.00,Wunderground v.1.15,2013-09-29 10:25:00,
2013-09-29 06:31:00,65.6,57.8,29.99,South,174,2.0,2.0,76,0.00,,,0.00,Wunderground v.1.15,2013-09-29 10:31:00,
2013-09-29 06:33:00,65.6,58.2,29.99,SSE,164,2.0,3.0,77,0.00,,,0.00,Wunderground v.1.15,2013-09-29 10:33:00,
2013-09-29 06:35:00,65.5,58.1,29.99,SSE,156,2.0,11.0,77,0.00,,,0.00,Wunderground v.1.15,2013-09-29 10:35:00,
2013-09-29 06:36:00,65.5,58.1,29.99,SSE,156,2.0,11.0,77,0.00,,,0.00,Wunderground v.1.15,2013-09-29 10:36:00,
2013-09-29 06:39:00,65.4,58.4,29.99,SSE,156,2.0,11.0,78,0.00,,,0.00,Wunderground v.1.15,2013-09-29 10:39:00,
2013-09-29 06:41:00,65.1,58.4,29.99,SSE,156,2.0,11.0,79,0.00,,,0.00,Wunderground v.1.15,2013-09-29 10:41:00,
2013-09-29 06:45:00,64.7,58.4,29.99,SSE,156,1.0,11.0,80,0.00,,,0.00,Wunderground v.1.15,2013-09-29 10:45:00,
2013-09-29 06:49:00,64.3,58.3,29.99,SSE,155,1.0,11.0,81,0.00,,,0.00,Wunderground v.1.15,2013-09-29 10:49:00,
2013-09-29 06:53:00,63.9,58.3,29.99,SSE,155,1.0,11.0,82,0.00,,,0.00,Wunderground v.1.15,2013-09-29 10:53:00,
2013-09-29 06:55:00,63.8,58.2,29.99,SSE,155,1.0,11.0,82,0.00,,,0.00,Wunderground v.1.15,2013-09-29 10:55:00,
2013-09-29 06:57:00,63.6,58.3,29.99,SSE,155,1.0,11.0,83,0.00,,,0.00,Wunderground v.1.15,2013-09-29 10:57:00,
2013-09-29 06:59:00,63.4,58.1,29.99,SSE,161,2.0,11.0,83,0.00,,,0.00,Wunderground v.1.15,2013-09-29 10:59:00,
2013-09-29 07:03:00,63.2,58.3,29.99,SSE,161,2.0,11.0,84,0.00,,,0.00,Wunderground v.1.15,2013-09-29 11:03:00,
2013-09-29 07:09:00,63.1,58.2,29.99,South,177,2.0,11.0,84,0.00,,,0.00,Wunderground v.1.15,2013-09-29 11:09:00,
2013-09-29 07:15:00,63.6,58.0,30.00,South,169,2.0,11.0,82,0.00,,,0.00,Wunderground v.1.15,2013-09-29 11:15:00,
2013-09-29 07:18:00,63.9,58.3,29.99,South,171,2.0,11.0,82,0.00,,,0.00,Wunderground v.1.15,2013-09-29 11:18:00,
2013-09-29 07:21:00,64.0,58.4,30.00,South,189,2.0,11.0,82,0.00,,,0.00,Wunderground v.1.15,2013-09-29 11:21:00,
2013-09-29 07:23:00,64.1,58.1,30.00,South,189,2.0,11.0,81,0.00,,,0.00,Wunderground v.1.15,2013-09-29 11:23:00,
2013-09-29 07:25:00,64.4,58.1,30.00,SSW,208,2.0,11.0,80,0.00,,,0.00,Wunderground v.1.15,2013-09-29 11:25:00,
2013-09-29 07:27:00,64.7,58.4,30.00,SSW,210,3.0,11.0,80,0.00,,,0.00,Wunderground v.1.15,2013-09-29 11:27:00,
2013-09-29 07:31:00,65.0,58.3,30.00,South,174,3.0,11.0,79,0.00,,,0.00,Wunderground v.1.15,2013-09-29 11:31:00,
2013-09-29 07:37:00,65.6,58.2,30.00,SSW,201,5.0,11.0,77,0.00,,,0.00,Wunderground v.1.15,2013-09-29 11:37:00,
2013-09-29 07:38:00,65.7,58.3,30.00,SW,216,5.0,11.0,77,0.00,,,0.00,Wunderground v.1.15,2013-09-29 11:38:00,
2013-09-29 07:43:00,65.9,58.5,30.00,SSW,212,6.0,11.0,77,0.00,,,0.00,Wunderground v.1.15,2013-09-29 11:43:00,
2013-09-29 07:45:00,66.0,58.6,30.00,SW,223,6.0,11.0,77,0.00,,,0.00,Wunderground v.1.15,2013-09-29 11:45:00,
2013-09-29 07:47:00,66.0,58.6,30.01,WSW,258,5.0,11.0,77,0.00,,,0.00,Wunderground v.1.15,2013-09-29 11:47:00,
2013-09-29 07:51:00,65.9,58.8,30.01,WNW,285,5.0,5.0,78,0.00,,,0.01,Wunderground v.1.15,2013-09-29 11:51:00,
2013-09-29 07:53:00,65.6,58.9,30.01,WNW,291,5.0,10.0,79,0.00,,,0.01,Wunderground v.1.15,2013-09-29 11:53:00,
2013-09-29 07:57:00,64.7,59.4,30.01,NW,305,6.0,11.0,83,0.09,,,0.02,Wunderground v.1.15,2013-09-29 11:57:00,
2013-09-29 07:59:00,64.2,59.3,30.01,SW,216,6.0,11.0,84,0.12,,,0.03,Wunderground v.1.15,2013-09-29 11:59:00,
2013-09-29 08:01:00,63.9,59.3,30.01,West,268,6.0,6.0,85,0.12,,,0.03,Wunderground v.1.15,2013-09-29 12:01:00,
2013-09-29 08:05:00,63.2,59.3,30.01,SW,223,3.0,11.0,87,0.18,,,0.04,Wunderground v.1.15,2013-09-29 12:05:00,
2013-09-29 08:07:00,63.0,59.4,30.01,SW,229,3.0,11.0,88,0.11,,,0.04,Wunderground v.1.15,2013-09-29 12:07:00,
2013-09-29 08:09:00,62.7,59.1,30.01,SW,231,3.0,11.0,88,0.08,,,0.04,Wunderground v.1.15,2013-09-29 12:09:00,
2013-09-29 08:11:00,62.6,59.3,30.01,SW,220,3.0,11.0,89,0.07,,,0.05,Wunderground v.1.15,2013-09-29 12:11:00,
2013-09-29 08:15:00,62.3,59.3,30.01,SW,231,4.0,11.0,90,0.20,,,0.06,Wunderground v.1.15,2013-09-29 12:15:00,
2013-09-29 08:17:00,62.2,59.2,30.01,SSW,207,4.0,11.0,90,0.17,,,0.07,Wunderground v.1.15,2013-09-29 12:17:00,
2013-09-29 08:23:00,62.0,59.3,30.01,WSW,249,5.0,11.0,91,0.17,,,0.08,Wunderground v.1.15,2013-09-29 12:23:00,
2013-09-29 08:25:00,62.0,59.3,30.01,SW,218,5.0,11.0,91,0.12,,,0.08,Wunderground v.1.15,2013-09-29 12:25:00,
2013-09-29 08:28:00,61.8,59.1,30.01,SSW,206,6.0,11.0,91,0.12,,,0.09,Wunderground v.1.15,2013-09-29 12:28:00,
2013-09-29 08:30:00,61.8,59.1,30.01,SSW,210,6.0,11.0,91,0.13,,,0.10,Wunderground v.1.15,2013-09-29 12:30:00,
2013-09-29 08:33:00,61.8,59.5,30.01,SSW,199,5.0,11.0,92,0.13,,,0.10,Wunderground v.1.15,2013-09-29 12:33:00,
2013-09-29 08:37:00,61.8,59.5,30.01,SW,234,5.0,11.0,92,0.14,,,0.11,Wunderground v.1.15,2013-09-29 12:37:00,
2013-09-29 08:38:00,61.8,59.5,30.01,SW,220,5.0,11.0,92,0.19,,,0.12,Wunderground v.1.15,2013-09-29 12:38:00,
2013-09-29 08:41:00,61.8,59.5,30.01,SSW,198,5.0,11.0,92,0.17,,,0.12,Wunderground v.1.15,2013-09-29 12:41:00,
2013-09-29 08:43:00,61.8,59.5,30.01,South,184,6.0,11.0,92,0.11,,,0.12,Wunderground v.1.15,2013-09-29 12:43:00,
2013-09-29 08:45:00,61.8,59.5,30.01,SW,216,6.0,11.0,92,0.08,,,0.13,Wunderground v.1.15,2013-09-29 12:45:00,
2013-09-29 08:49:00,61.9,59.9,30.01,SW,222,7.0,11.0,93,0.08,,,0.13,Wunderground v.1.15,2013-09-29 12:49:00,
2013-09-29 08:53:00,61.9,59.9,30.01,SSW,205,7.0,11.0,93,0.10,,,0.14,Wunderground v.1.15,2013-09-29 12:53:00,
2013-09-29 08:55:00,62.0,60.0,30.01,SSW,209,6.0,11.0,93,0.10,,,0.14,Wunderground v.1.15,2013-09-29 12:55:00,
2013-09-29 08:57:00,62.0,60.0,30.01,SSW,210,6.0,11.0,93,0.09,,,0.14,Wunderground v.1.15,2013-09-29 12:57:00,
2013-09-29 09:03:00,62.2,60.2,30.01,SSW,208,7.0,11.0,93,0.20,,,0.16,Wunderground v.1.15,2013-09-29 13:03:00,
2013-09-29 09:05:00,62.2,60.2,30.01,SSW,204,7.0,11.0,93,0.14,,,0.17,Wunderground v.1.15,2013-09-29 13:05:00,
2013-09-29 09:09:00,62.2,60.2,30.01,SW,223,7.0,11.0,93,0.16,,,0.18,Wunderground v.1.15,2013-09-29 13:09:00,
2013-09-29 09:10:00,62.3,60.2,30.01,SSW,212,7.0,11.0,93,0.16,,,0.18,Wunderground v.1.15,2013-09-29 13:10:00,
2013-09-29 09:15:00,62.3,60.2,30.01,SW,214,7.0,11.0,93,0.16,,,0.19,Wunderground v.1.15,2013-09-29 13:15:00,
2013-09-29 09:17:00,62.3,60.2,30.01,SW,232,7.0,11.0,93,0.17,,,0.20,Wunderground v.1.15,2013-09-29 13:17:00,
2013-09-29 09:19:00,62.3,60.2,30.01,SW,216,7.0,11.0,93,0.15,,,0.20,Wunderground v.1.15,2013-09-29 13:19:00,
2013-09-29 09:20:00,62.4,60.3,30.01,SW,218,7.0,11.0,93,0.10,,,0.20,Wunderground v.1.15,2013-09-29 13:20:00,
2013-09-29 09:23:00,62.4,60.3,30.01,SSW,200,7.0,11.0,93,0.09,,,0.21,Wunderground v.1.15,2013-09-29 13:23:00,
2013-09-29 09:27:00,62.4,60.3,30.01,SSW,203,8.0,14.0,93,0.09,,,0.21,Wunderground v.1.15,2013-09-29 13:27:00,
2013-09-29 09:30:00,62.5,60.4,30.01,SW,217,8.0,11.0,93,0.07,,,0.21,Wunderground v.1.15,2013-09-29 13:30:00,
2013-09-29 09:33:00,62.6,60.5,30.01,SW,221,8.0,12.0,93,0.06,,,0.22,Wunderground v.1.15,2013-09-29 13:33:00,
2013-09-29 09:39:00,62.6,60.5,30.00,SSW,204,8.0,12.0,93,0.06,,,0.22,Wunderground v.1.15,2013-09-29 13:39:00,
2013-09-29 09:45:00,62.7,60.6,30.00,SSW,207,8.0,12.0,93,0.07,,,0.23,Wunderground v.1.15,2013-09-29 13:45:00,
2013-09-29 09:47:00,62.7,60.6,30.00,SSW,198,8.0,12.0,93,0.07,,,0.23,Wunderground v.1.15,2013-09-29 13:47:00,
2013-09-29 09:49:00,62.7,60.6,30.00,SSW,199,8.0,12.0,93,0.07,,,0.23,Wunderground v.1.15,2013-09-29 13:49:00,
2013-09-29 09:53:00,62.7,60.6,30.00,SW,231,8.0,11.0,93,0.05,,,0.23,Wunderground v.1.15,2013-09-29 13:53:00,
2013-09-29 09:55:00,62.7,60.6,30.01,South,187,8.0,13.0,93,0.04,,,0.23,Wunderground v.1.15,2013-09-29 13:55:00,
2013-09-29 09:57:00,62.7,60.3,30.01,SSW,205,8.0,13.0,92,0.04,,,0.23,Wunderground v.1.15,2013-09-29 13:57:00,
2013-09-29 09:59:00,62.7,60.3,30.01,South,191,8.0,13.0,92,0.04,,,0.24,Wunderground v.1.15,2013-09-29 13:59:00,
2013-09-29 10:03:00,62.6,60.5,30.00,SSW,199,8.0,11.0,93,0.04,,,0.24,Wunderground v.1.15,2013-09-29 14:03:00,
2013-09-29 10:05:00,62.6,60.5,30.00,SSE,168,8.0,11.0,93,0.10,,,0.25,Wunderground v.1.15,2013-09-29 14:05:00,
2013-09-29 10:09:00,62.6,60.5,30.00,SSW,208,7.0,18.0,93,0.12,,,0.26,Wunderground v.1.15,2013-09-29 14:09:00,
2013-09-29 10:11:00,62.6,60.5,30.00,South,181,7.0,7.0,93,0.12,,,0.26,Wunderground v.1.15,2013-09-29 14:11:00,
2013-09-29 10:15:00,62.6,60.5,30.01,South,170,7.0,11.0,93,0.12,,,0.27,Wunderground v.1.15,2013-09-29 14:15:00,
2013-09-29 10:17:00,62.6,60.5,30.00,SSE,168,7.0,11.0,93,0.12,,,0.27,Wunderground v.1.15,2013-09-29 14:17:00,
2013-09-29 10:19:00,62.6,60.5,30.01,SSW,198,7.0,11.0,93,0.11,,,0.27,Wunderground v.1.15,2013-09-29 14:19:00,
2013-09-29 10:23:00,62.6,60.5,30.01,South,188,6.0,11.0,93,0.11,,,0.28,Wunderground v.1.15,2013-09-29 14:23:00,
2013-09-29 10:25:00,62.6,60.5,30.01,SSW,201,6.0,11.0,93,0.10,,,0.28,Wunderground v.1.15,2013-09-29 14:25:00,
2013-09-29 10:29:00,62.7,60.6,30.01,SSW,200,6.0,11.0,93,0.06,,,0.28,Wunderground v.1.15,2013-09-29 14:29:00,
2013-09-29 10:31:00,62.7,60.6,30.01,SW,214,7.0,11.0,93,0.05,,,0.28,Wunderground v.1.15,2013-09-29 14:31:00,
2013-09-29 10:35:00,62.8,60.7,30.01,SSW,211,7.0,11.0,93,0.04,,,0.28,Wunderground v.1.15,2013-09-29 14:35:00,
2013-09-29 10:36:00,62.8,60.7,30.01,SSW,204,8.0,11.0,93,0.00,,,0.28,Wunderground v.1.15,2013-09-29 14:36:00,
2013-09-29 10:41:00,62.8,60.7,30.01,South,188,8.0,8.0,93,0.00,,,0.28,Wunderground v.1.15,2013-09-29 14:41:00,
2013-09-29 10:47:00,62.9,60.8,30.01,SW,229,7.0,11.0,93,0.00,,,0.28,Wunderground v.1.15,2013-09-29 14:47:00,
2013-09-29 10:49:00,62.9,60.8,30.01,SW,221,7.0,11.0,93,0.00,,,0.28,Wunderground v.1.15,2013-09-29 14:49:00,
2013-09-29 10:53:00,62.9,60.8,30.01,SSW,198,7.0,11.0,93,0.00,,,0.29,Wunderground v.1.15,2013-09-29 14:53:00,
2013-09-29 10:55:00,62.9,60.8,30.01,SSW,204,7.0,11.0,93,0.00,,,0.29,Wunderground v.1.15,2013-09-29 14:55:00,
2013-09-29 10:59:00,62.9,60.8,30.01,South,191,6.0,11.0,93,0.00,,,0.29,Wunderground v.1.15,2013-09-29 14:59:00,
2013-09-29 11:00:00,62.9,60.8,30.01,SSW,194,6.0,6.0,93,0.00,,,0.29,Wunderground v.1.15,2013-09-29 15:00:00,
2013-09-29 11:05:00,62.9,60.8,30.01,SSW,194,6.0,11.0,93,0.00,,,0.29,Wunderground v.1.15,2013-09-29 15:05:00,
2013-09-29 11:07:00,62.9,60.8,30.01,SSW,194,6.0,11.0,93,0.00,,,0.29,Wunderground v.1.15,2013-09-29 15:07:00,
2013-09-29 11:10:00,62.9,60.8,30.01,SW,216,6.0,6.0,93,0.00,,,0.29,Wunderground v.1.15,2013-09-29 15:10:00,
2013-09-29 11:15:00,62.9,60.8,30.01,South,181,6.0,11.0,93,0.00,,,0.29,Wunderground v.1.15,2013-09-29 15:15:00,
2013-09-29 11:17:00,62.9,60.8,30.01,South,170,6.0,11.0,93,0.00,,,0.29,Wunderground v.1.15,2013-09-29 15:17:00,
2013-09-29 11:21:00,62.9,60.8,30.01,South,185,5.0,11.0,93,0.00,,,0.29,Wunderground v.1.15,2013-09-29 15:21:00,
2013-09-29 11:23:00,62.9,60.8,30.00,SSW,201,5.0,11.0,93,0.00,,,0.29,Wunderground v.1.15,2013-09-29 15:23:00,
2013-09-29 11:25:00,62.9,60.8,30.00,SSW,208,6.0,11.0,93,0.00,,,0.29,Wunderground v.1.15,2013-09-29 15:25:00,
2013-09-29 11:27:00,63.0,60.9,30.00,SW,226,6.0,11.0,93,0.00,,,0.29,Wunderground v.1.15,2013-09-29 15:27:00,
2013-09-29 11:29:00,63.0,60.9,30.00,SSW,201,5.0,11.0,93,0.00,,,0.29,Wunderground v.1.15,2013-09-29 15:29:00,
2013-09-29 11:31:00,63.0,60.9,30.00,South,174,6.0,6.0,93,0.00,,,0.29,Wunderground v.1.15,2013-09-29 15:31:00,
2013-09-29 11:35:00,63.0,60.9,30.01,South,181,5.0,11.0,93,0.00,,,0.29,Wunderground v.1.15,2013-09-29 15:35:00,
2013-09-29 11:37:00,63.1,61.0,30.01,SW,222,5.0,11.0,93,0.00,,,0.29,Wunderground v.1.15,2013-09-29 15:37:00,
2013-09-29 11:39:00,63.1,61.0,30.01,SW,214,5.0,11.0,93,0.00,,,0.29,Wunderground v.1.15,2013-09-29 15:39:00,
2013-09-29 11:40:00,63.1,61.0,30.01,SSW,209,5.0,11.0,93,0.00,,,0.29,Wunderground v.1.15,2013-09-29 15:40:00,
2013-09-29 11:45:00,63.1,61.0,30.01,SW,228,5.0,11.0,93,0.00,,,0.29,Wunderground v.1.15,2013-09-29 15:45:00,
2013-09-29 11:47:00,63.1,61.0,30.01,SSW,207,6.0,11.0,93,0.00,,,0.29,Wunderground v.1.15,2013-09-29 15:47:00,
2013-09-29 11:50:00,63.1,61.0,30.01,SSW,193,6.0,11.0,93,0.00,,,0.29,Wunderground v.1.15,2013-09-29 15:50:00,
2013-09-29 11:52:00,63.1,61.0,30.01,SSW,197,6.0,11.0,93,0.00,,,0.29,Wunderground v.1.15,2013-09-29 15:52:00,
2013-09-29 11:55:00,63.2,61.1,30.01,South,187,6.0,11.0,93,0.00,,,0.29,Wunderground v.1.15,2013-09-29 15:55:00,
2013-09-29 11:57:00,63.2,61.1,30.01,South,184,6.0,11.0,93,0.00,,,0.29,Wunderground v.1.15,2013-09-29 15:57:00,
2013-09-29 11:59:00,63.2,61.1,30.01,SW,234,6.0,11.0,93,0.00,,,0.29,Wunderground v.1.15,2013-09-29 15:59:00,
2013-09-29 12:03:00,63.2,61.1,30.01,SW,218,6.0,11.0,93,0.00,,,0.29,Wunderground v.1.15,2013-09-29 16:03:00,
2013-09-29 12:07:00,63.2,61.1,30.01,SSW,199,6.0,11.0,93,0.00,,,0.29,Wunderground v.1.15,2013-09-29 16:07:00,
2013-09-29 12:09:00,63.2,61.1,30.01,South,190,6.0,11.0,93,0.00,,,0.29,Wunderground v.1.15,2013-09-29 16:09:00,
2013-09-29 12:13:00,63.3,61.2,30.01,SW,226,6.0,11.0,93,0.00,,,0.29,Wunderground v.1.15,2013-09-29 16:13:00,
2013-09-29 12:15:00,63.3,61.2,30.01,South,187,6.0,11.0,93,0.00,,,0.29,Wunderground v.1.15,2013-09-29 16:15:00,
2013-09-29 12:17:00,63.3,61.2,30.01,SSE,168,6.0,11.0,93,0.00,,,0.29,Wunderground v.1.15,2013-09-29 16:17:00,
2013-09-29 12:21:00,63.3,61.2,30.01,SW,228,7.0,12.0,93,0.00,,,0.29,Wunderground v.1.15,2013-09-29 16:21:00,
2013-09-29 12:27:00,63.3,61.2,30.01,SSW,201,8.0,12.0,93,0.00,,,0.29,Wunderground v.1.15,2013-09-29 16:27:00,
2013-09-29 12:29:00,63.3,61.2,30.01,SW,218,8.0,14.0,93,0.00,,,0.29,Wunderground v.1.15,2013-09-29 16:29:00,
2013-09-29 12:30:00,63.3,61.2,30.01,SW,216,8.0,12.0,93,0.00,,,0.29,Wunderground v.1.15,2013-09-29 16:30:00,
2013-09-29 12:32:00,63.3,61.2,30.01,WSW,240,8.0,12.0,93,0.00,,,0.29,Wunderground v.1.15,2013-09-29 16:32:00,
2013-09-29 12:37:00,63.4,61.3,30.01,SW,217,8.0,12.0,93,0.00,,,0.29,Wunderground v.1.15,2013-09-29 16:37:00,
2013-09-29 12:39:00,63.4,61.3,30.01,SSW,199,8.0,12.0,93,0.00,,,0.29,Wunderground v.1.15,2013-09-29 16:39:00,
2013-09-29 12:40:00,63.4,61.3,30.01,SW,226,8.0,11.0,93,0.00,,,0.29,Wunderground v.1.15,2013-09-29 16:40:00,
2013-09-29 12:42:00,63.5,61.4,30.01,SSW,202,7.0,11.0,93,0.00,,,0.29,Wunderground v.1.15,2013-09-29 16:42:00,
2013-09-29 12:49:00,63.4,61.3,30.01,SSW,205,7.0,11.0,93,0.00,,,0.29,Wunderground v.1.15,2013-09-29 16:49:00,
2013-09-29 12:52:00,63.4,61.3,30.01,West,260,7.0,11.0,93,0.00,,,0.29,Wunderground v.1.15,2013-09-29 16:52:00,
2013-09-29 12:55:00,63.4,61.3,30.01,SSW,212,7.0,12.0,93,0.00,,,0.29,Wunderground v.1.15,2013-09-29 16:55:00,
2013-09-29 12:57:00,63.3,61.2,30.01,SW,216,8.0,12.0,93,0.00,,,0.29,Wunderground v.1.15,2013-09-29 16:57:00,
2013-09-29 13:01:00,63.4,61.3,30.01,SW,231,7.0,7.0,93,0.00,,,0.29,Wunderground v.1.15,2013-09-29 17:01:00,
2013-09-29 13:03:00,63.4,61.3,30.01,SSW,208,7.0,11.0,93,0.00,,,0.29,Wunderground v.1.15,2013-09-29 17:03:00,
2013-09-29 13:05:00,63.3,61.2,30.01,SW,224,7.0,11.0,93,0.00,,,0.29,Wunderground v.1.15,2013-09-29 17:05:00,
2013-09-29 13:09:00,63.3,61.2,30.01,SW,230,6.0,11.0,93,0.00,,,0.29,Wunderground v.1.15,2013-09-29 17:09:00,
2013-09-29 13:11:00,63.2,61.1,30.01,SW,225,7.0,7.0,93,0.00,,,0.29,Wunderground v.1.15,2013-09-29 17:11:00,
2013-09-29 13:15:00,63.3,61.5,30.01,WSW,240,6.0,11.0,94,0.00,,,0.29,Wunderground v.1.15,2013-09-29 17:15:00,
2013-09-29 13:17:00,63.3,61.5,30.01,WSW,245,6.0,11.0,94,0.00,,,0.29,Wunderground v.1.15,2013-09-29 17:17:00,
2013-09-29 13:19:00,63.3,61.5,30.01,SW,227,6.0,11.0,94,0.00,,,0.29,Wunderground v.1.15,2013-09-29 17:19:00,
2013-09-29 13:21:00,63.3,61.5,30.01,SSW,210,6.0,6.0,94,0.00,,,0.29,Wunderground v.1.15,2013-09-29 17:21:00,
2013-09-29 13:22:00,63.3,61.5,30.01,SSW,210,6.0,11.0,94,0.00,,,0.29,Wunderground v.1.15,2013-09-29 17:22:00,
2013-09-29 13:27:00,63.3,61.5,30.01,WSW,237,5.0,11.0,94,0.00,,,0.29,Wunderground v.1.15,2013-09-29 17:27:00,
2013-09-29 13:29:00,63.2,61.4,30.01,SW,228,6.0,11.0,94,0.00,,,0.29,Wunderground v.1.15,2013-09-29 17:29:00,
2013-09-29 13:31:00,63.3,61.5,30.01,SW,230,5.0,11.0,94,0.00,,,0.29,Wunderground v.1.15,2013-09-29 17:31:00,
2013-09-29 13:35:00,63.3,61.5,30.01,WSW,247,6.0,11.0,94,0.00,,,0.29,Wunderground v.1.15,2013-09-29 17:35:00,
2013-09-29 13:37:00,63.3,61.5,30.01,SW,221,5.0,11.0,94,0.00,,,0.29,Wunderground v.1.15,2013-09-29 17:37:00,
2013-09-29 13:42:00,63.3,61.5,30.00,WSW,239,5.0,11.0,94,0.00,,,0.29,Wunderground v.1.15,2013-09-29 17:42:00,
2013-09-29 13:45:00,63.3,61.5,30.00,SSW,210,5.0,11.0,94,0.00,,,0.29,Wunderground v.1.15,2013-09-29 17:45:00,
2013-09-29 13:49:00,63.3,61.5,30.00,SW,218,5.0,11.0,94,0.00,,,0.29,Wunderground v.1.15,2013-09-29 17:49:00,
2013-09-29 13:51:00,63.3,61.5,30.00,SW,223,6.0,11.0,94,0.00,,,0.29,Wunderground v.1.15,2013-09-29 17:51:00,
2013-09-29 13:55:00,63.3,61.5,30.00,SSW,203,6.0,11.0,94,0.00,,,0.29,Wunderground v.1.15,2013-09-29 17:55:00,
2013-09-29 13:57:00,63.3,61.5,30.00,SW,222,6.0,11.0,94,0.00,,,0.29,Wunderground v.1.15,2013-09-29 17:57:00,
2013-09-29 14:03:00,63.4,61.6,30.00,SW,217,5.0,11.0,94,0.00,,,0.29,Wunderground v.1.15,2013-09-29 18:03:00,
2013-09-29 14:05:00,63.4,61.6,30.00,SW,218,5.0,11.0,94,0.00,,,0.29,Wunderground v.1.15,2013-09-29 18:05:00,
2013-09-29 14:07:00,63.4,61.6,29.99,SW,215,5.0,11.0,94,0.00,,,0.29,Wunderground v.1.15,2013-09-29 18:07:00,
2013-09-29 14:11:00,63.4,61.6,29.99,SSW,193,5.0,11.0,94,0.00,,,0.29,Wunderground v.1.15,2013-09-29 18:11:00,
2013-09-29 14:15:00,63.4,61.6,29.99,SW,231,6.0,11.0,94,0.00,,,0.29,Wunderground v.1.15,2013-09-29 18:15:00,
2013-09-29 14:19:00,63.5,61.7,29.99,SSW,204,5.0,11.0,94,0.00,,,0.29,Wunderground v.1.15,2013-09-29 18:19:00,
2013-09-29 14:21:00,63.5,61.7,29.99,SW,217,5.0,5.0,94,0.00,,,0.29,Wunderground v.1.15,2013-09-29 18:21:00,
2013-09-29 14:22:00,63.5,61.7,29.99,SSW,199,4.0,11.0,94,0.00,,,0.29,Wunderground v.1.15,2013-09-29 18:22:00,
2013-09-29 14:24:00,63.5,61.7,29.99,SSW,204,4.0,11.0,94,0.00,,,0.29,Wunderground v.1.15,2013-09-29 18:24:00,
2013-09-29 14:27:00,63.5,61.7,29.99,SSW,193,4.0,11.0,94,0.00,,,0.29,Wunderground v.1.15,2013-09-29 18:27:00,
2013-09-29 14:31:00,63.6,61.8,29.98,South,177,4.0,11.0,94,0.00,,,0.29,Wunderground v.1.15,2013-09-29 18:31:00,
2013-09-29 14:32:00,63.6,61.8,29.99,SSW,201,4.0,11.0,94,0.00,,,0.29,Wunderground v.1.15,2013-09-29 18:32:00,
2013-09-29 14:35:00,63.6,61.8,29.99,SSW,199,4.0,11.0,94,0.00,,,0.29,Wunderground v.1.15,2013-09-29 18:35:00,
2013-09-29 14:37:00,63.6,61.8,29.99,SSW,195,4.0,11.0,94,0.00,,,0.29,Wunderground v.1.15,2013-09-29 18:37:00,
2013-09-29 14:41:00,63.6,61.8,29.98,South,186,5.0,5.0,94,0.00,,,0.29,Wunderground v.1.15,2013-09-29 18:41:00,
2013-09-29 14:43:00,63.6,61.8,29.98,SSW,198,5.0,6.0,94,0.00,,,0.29,Wunderground v.1.15,2013-09-29 18:43:00,
2013-09-29 14:45:00,63.6,61.8,29.98,SSW,200,5.0,11.0,94,0.00,,,0.29,Wunderground v.1.15,2013-09-29 18:45:00,
2013-09-29 14:49:00,63.6,61.8,29.98,SSW,206,5.0,11.0,94,0.00,,,0.29,Wunderground v.1.15,2013-09-29 18:49:00,
2013-09-29 14:53:00,63.7,61.9,29.98,SSW,201,5.0,11.0,94,0.00,,,0.29,Wunderground v.1.15,2013-09-29 18:53:00,
2013-09-29 14:55:00,63.7,61.9,29.98,SW,232,5.0,11.0,94,0.00,,,0.29,Wunderground v.1.15,2013-09-29 18:55:00,
2013-09-29 14:59:00,63.6,61.8,29.98,SSW,204,6.0,11.0,94,0.00,,,0.29,Wunderground v.1.15,2013-09-29 18:59:00,
2013-09-29 15:01:00,63.7,61.9,29.98,SW,231,6.0,11.0,94,0.00,,,0.29,Wunderground v.1.15,2013-09-29 19:01:00,
2013-09-29 15:03:00,63.7,61.9,29.98,SW,233,6.0,11.0,94,0.00,,,0.29,Wunderground v.1.15,2013-09-29 19:03:00,
2013-09-29 15:07:00,63.7,61.9,29.98,SSW,209,6.0,11.0,94,0.00,,,0.29,Wunderground v.1.15,2013-09-29 19:07:00,
2013-09-29 15:09:00,63.7,61.9,29.98,SSW,197,5.0,11.0,94,0.00,,,0.29,Wunderground v.1.15,2013-09-29 19:09:00,
2013-09-29 15:13:00,63.8,62.0,29.98,SW,218,5.0,11.0,94,0.00,,,0.29,Wunderground v.1.15,2013-09-29 19:13:00,
2013-09-29 15:14:00,63.7,61.9,29.98,SW,215,5.0,11.0,94,0.00,,,0.29,Wunderground v.1.15,2013-09-29 19:14:00,
2013-09-29 15:17:00,63.7,61.9,29.98,SSW,213,5.0,11.0,94,0.00,,,0.29,Wunderground v.1.15,2013-09-29 19:17:00,
2013-09-29 15:19:00,63.8,62.0,29.98,South,188,4.0,11.0,94,0.00,,,0.29,Wunderground v.1.15,2013-09-29 19:19:00,
2013-09-29 15:23:00,63.8,62.0,29.98,SW,236,4.0,11.0,94,0.00,,,0.29,Wunderground v.1.15,2013-09-29 19:23:00,
2013-09-29 15:24:00,63.7,61.9,29.98,SSW,198,4.0,11.0,94,0.00,,,0.29,Wunderground v.1.15,2013-09-29 19:24:00,
2013-09-29 15:29:00,63.7,61.9,29.98,South,189,4.0,11.0,94,0.00,,,0.29,Wunderground v.1.15,2013-09-29 19:29:00,
2013-09-29 15:31:00,63.7,61.9,29.98,SSW,203,5.0,11.0,94,0.00,,,0.29,Wunderground v.1.15,2013-09-29 19:31:00,
2013-09-29 15:33:00,63.7,61.9,29.98,SW,215,5.0,11.0,94,0.00,,,0.29,Wunderground v.1.15,2013-09-29 19:33:00,
2013-09-29 15:37:00,63.7,61.9,29.98,SW,217,5.0,11.0,94,0.00,,,0.29,Wunderground v.1.15,2013-09-29 19:37:00,
2013-09-29 15:39:00,63.7,61.9,29.98,SSW,206,4.0,11.0,94,0.00,,,0.29,Wunderground v.1.15,2013-09-29 19:39:00,
2013-09-29 15:43:00,63.7,61.9,29.97,SSW,196,4.0,11.0,94,0.00,,,0.29,Wunderground v.1.15,2013-09-29 19:43:00,
2013-09-29 15:45:00,63.7,61.9,29.97,SSW,197,4.0,11.0,94,0.00,,,0.29,Wunderground v.1.15,2013-09-29 19:45:00,
2013-09-29 15:49:00,63.8,62.0,29.97,SSW,210,4.0,11.0,94,0.00,,,0.29,Wunderground v.1.15,2013-09-29 19:49:00,
2013-09-29 15:51:00,63.8,62.0,29.97,SSW,197,4.0,11.0,94,0.00,,,0.29,Wunderground v.1.15,2013-09-29 19:51:00,
2013-09-29 15:57:00,63.8,62.0,29.97,SSW,210,4.0,11.0,94,0.00,,,0.29,Wunderground v.1.15,2013-09-29 19:57:00,
2013-09-29 16:01:00,63.8,62.0,29.97,SSW,212,4.0,11.0,94,0.00,,,0.29,Wunderground v.1.15,2013-09-29 20:01:00,
2013-09-29 16:03:00,63.9,62.1,29.97,SW,220,3.0,11.0,94,0.00,,,0.29,Wunderground v.1.15,2013-09-29 20:03:00,
2013-09-29 16:04:00,63.9,62.1,29.97,SSW,208,3.0,11.0,94,0.00,,,0.29,Wunderground v.1.15,2013-09-29 20:04:00,
2013-09-29 16:09:00,63.9,62.1,29.97,SSW,199,3.0,11.0,94,0.00,,,0.29,Wunderground v.1.15,2013-09-29 20:09:00,
2013-09-29 16:11:00,63.9,62.1,29.97,South,189,3.0,3.0,94,0.00,,,0.29,Wunderground v.1.15,2013-09-29 20:11:00,
2013-09-29 16:17:00,64.0,62.2,29.97,SSW,204,3.0,11.0,94,0.00,,,0.29,Wunderground v.1.15,2013-09-29 20:17:00,
2013-09-29 16:19:00,64.0,62.2,29.97,SSW,212,3.0,11.0,94,0.00,,,0.29,Wunderground v.1.15,2013-09-29 20:19:00,
2013-09-29 16:21:00,63.9,62.1,29.97,SSW,202,3.0,11.0,94,0.00,,,0.29,Wunderground v.1.15,2013-09-29 20:21:00,
2013-09-29 16:23:00,63.9,62.1,29.97,SW,221,3.0,11.0,94,0.00,,,0.29,Wunderground v.1.15,2013-09-29 20:23:00,
2013-09-29 16:27:00,64.0,62.2,29.97,SSW,201,3.0,11.0,94,0.00,,,0.29,Wunderground v.1.15,2013-09-29 20:27:00,
2013-09-29 16:29:00,64.0,62.2,29.97,SSW,199,3.0,11.0,94,0.00,,,0.29,Wunderground v.1.15,2013-09-29 20:29:00,
2013-09-29 16:35:00,64.0,62.2,29.97,SSW,202,3.0,11.0,94,0.00,,,0.29,Wunderground v.1.15,2013-09-29 20:35:00,
2013-09-29 16:37:00,64.0,62.2,29.97,SW,214,3.0,11.0,94,0.00,,,0.29,Wunderground v.1.15,2013-09-29 20:37:00,
2013-09-29 16:43:00,63.9,62.1,29.97,SSW,201,3.0,11.0,94,0.00,,,0.29,Wunderground v.1.15,2013-09-29 20:43:00,
2013-09-29 16:47:00,64.0,62.2,29.97,SSW,203,3.0,11.0,94,0.00,,,0.29,Wunderground v.1.15,2013-09-29 20:47:00,
2013-09-29 16:49:00,63.9,62.1,29.97,SSW,203,3.0,11.0,94,0.00,,,0.29,Wunderground v.1.15,2013-09-29 20:49:00,
2013-09-29 16:51:00,64.0,62.2,29.97,SSW,203,2.0,11.0,94,0.00,,,0.29,Wunderground v.1.15,2013-09-29 20:51:00,
2013-09-29 16:53:00,64.0,62.2,29.97,SSW,203,2.0,11.0,94,0.00,,,0.29,Wunderground v.1.15,2013-09-29 20:53:00,
2013-09-29 16:56:00,64.0,62.2,29.97,SSW,207,2.0,11.0,94,0.00,,,0.30,Wunderground v.1.15,2013-09-29 20:56:00,
2013-09-29 16:59:00,64.0,62.2,29.97,SSW,207,2.0,11.0,94,0.00,,,0.30,Wunderground v.1.15,2013-09-29 20:59:00,
2013-09-29 17:03:00,64.1,62.6,29.97,SSW,207,1.0,11.0,95,0.00,,,0.30,Wunderground v.1.15,2013-09-29 21:03:00,
2013-09-29 17:05:00,64.1,62.6,29.97,SSW,207,1.0,11.0,95,0.00,,,0.30,Wunderground v.1.15,2013-09-29 21:05:00,
2013-09-29 17:09:00,64.0,62.2,29.97,SSW,212,2.0,11.0,94,0.00,,,0.30,Wunderground v.1.15,2013-09-29 21:09:00,
2013-09-29 17:11:00,64.0,62.2,29.97,South,191,3.0,11.0,94,0.00,,,0.30,Wunderground v.1.15,2013-09-29 21:11:00,
2013-09-29 17:15:00,64.0,62.2,29.97,SSW,198,3.0,11.0,94,0.00,,,0.30,Wunderground v.1.15,2013-09-29 21:15:00,
2013-09-29 17:16:00,64.0,62.2,29.97,SSW,198,3.0,11.0,94,0.00,,,0.30,Wunderground v.1.15,2013-09-29 21:16:00,
2013-09-29 17:19:00,64.0,62.2,29.97,South,175,3.0,11.0,94,0.00,,,0.30,Wunderground v.1.15,2013-09-29 21:19:00,
2013-09-29 17:23:00,64.0,62.2,29.97,SSE,168,2.0,11.0,94,0.00,,,0.30,Wunderground v.1.15,2013-09-29 21:23:00,
2013-09-29 17:26:00,63.9,62.1,29.97,SSW,198,1.0,11.0,94,0.00,,,0.30,Wunderground v.1.15,2013-09-29 21:26:00,
2013-09-29 17:29:00,63.9,62.1,29.97,SSW,198,1.0,11.0,94,0.00,,,0.30,Wunderground v.1.15,2013-09-29 21:29:00,
2013-09-29 17:33:00,63.9,62.1,29.97,South,185,2.0,4.0,94,0.00,,,0.30,Wunderground v.1.15,2013-09-29 21:33:00,
2013-09-29 17:35:00,63.9,62.1,29.97,South,190,2.0,11.0,94,0.00,,,0.30,Wunderground v.1.15,2013-09-29 21:35:00,
2013-09-29 17:36:00,64.0,62.5,29.97,SSE,166,2.0,11.0,95,0.00,,,0.30,Wunderground v.1.15,2013-09-29 21:36:00,
2013-09-29 17:43:00,63.8,62.0,29.97,South,177,3.0,11.0,94,0.00,,,0.30,Wunderground v.1.15,2013-09-29 21:43:00,
2013-09-29 17:45:00,63.8,62.0,29.97,South,181,3.0,11.0,94,0.00,,,0.30,Wunderground v.1.15,2013-09-29 21:45:00,
2013-09-29 17:49:00,63.8,62.0,29.97,SSW,205,4.0,11.0,94,0.00,,,0.30,Wunderground v.1.15,2013-09-29 21:49:00,
2013-09-29 17:51:00,63.8,62.3,29.97,South,191,4.0,4.0,95,0.00,,,0.30,Wunderground v.1.15,2013-09-29 21:51:00,
2013-09-29 17:55:00,63.8,62.3,29.97,South,191,3.0,11.0,95,0.00,,,0.30,Wunderground v.1.15,2013-09-29 21:55:00,
2013-09-29 17:57:00,63.8,62.3,29.97,South,187,3.0,11.0,95,0.00,,,0.30,Wunderground v.1.15,2013-09-29 21:57:00,
2013-09-29 17:59:00,63.8,62.3,29.97,SSW,197,3.0,11.0,95,0.00,,,0.30,Wunderground v.1.15,2013-09-29 21:59:00,
2013-09-29 18:05:00,63.8,62.3,29.97,SSE,168,2.0,11.0,95,0.00,,,0.31,Wunderground v.1.15,2013-09-29 22:05:00,
2013-09-29 18:08:00,63.8,62.3,29.97,SSW,197,2.0,11.0,95,0.00,,,0.31,Wunderground v.1.15,2013-09-29 22:08:00,
2013-09-29 18:11:00,63.7,62.2,29.97,SSW,199,2.0,11.0,95,0.00,,,0.31,Wunderground v.1.15,2013-09-29 22:11:00,
2013-09-29 18:13:00,63.7,62.2,29.97,South,174,2.0,11.0,95,0.00,,,0.31,Wunderground v.1.15,2013-09-29 22:13:00,
2013-09-29 18:19:00,63.7,62.2,29.97,South,188,3.0,11.0,95,0.00,,,0.31,Wunderground v.1.15,2013-09-29 22:19:00,
2013-09-29 18:21:00,63.7,62.2,29.97,SSW,206,3.0,11.0,95,0.00,,,0.31,Wunderground v.1.15,2013-09-29 22:21:00,
2013-09-29 18:22:00,63.6,62.1,29.97,SW,216,3.0,11.0,95,0.00,,,0.31,Wunderground v.1.15,2013-09-29 22:22:00,
2013-09-29 18:25:00,63.6,62.1,29.98,SSW,204,4.0,11.0,95,0.00,,,0.31,Wunderground v.1.15,2013-09-29 22:25:00,
2013-09-29 18:29:00,63.6,62.1,29.98,SSW,206,5.0,11.0,95,0.00,,,0.31,Wunderground v.1.15,2013-09-29 22:29:00,
2013-09-29 18:30:00,63.6,62.1,29.97,South,183,5.0,5.0,95,0.00,,,0.31,Wunderground v.1.15,2013-09-29 22:30:00,
2013-09-29 18:32:00,63.6,62.1,29.98,South,173,4.0,11.0,95,0.00,,,0.31,Wunderground v.1.15,2013-09-29 22:32:00,
2013-09-29 18:37:00,63.6,62.1,29.97,SSW,209,4.0,11.0,95,0.00,,,0.31,Wunderground v.1.15,2013-09-29 22:37:00,
2013-09-29 18:39:00,63.5,62.0,29.98,SSW,200,4.0,11.0,95,0.00,,,0.31,Wunderground v.1.15,2013-09-29 22:39:00,
2013-09-29 18:42:00,63.6,62.1,29.97,SSW,202,4.0,5.0,95,0.00,,,0.31,Wunderground v.1.15,2013-09-29 22:42:00,
2013-09-29 18:45:00,63.6,62.1,29.97,South,173,4.0,11.0,95,0.00,,,0.31,Wunderground v.1.15,2013-09-29 22:45:00,
2013-09-29 18:47:00,63.6,62.1,29.97,South,189,3.0,11.0,95,0.00,,,0.31,Wunderground v.1.15,2013-09-29 22:47:00,
2013-09-29 18:49:00,63.6,62.1,29.98,SSE,167,3.0,11.0,95,0.00,,,0.31,Wunderground v.1.15,2013-09-29 22:49:00,
2013-09-29 18:55:00,63.6,62.1,29.98,South,183,2.0,11.0,95,0.00,,,0.32,Wunderground v.1.15,2013-09-29 22:55:00,
2013-09-29 18:59:00,63.5,62.0,29.97,South,183,2.0,11.0,95,0.00,,,0.32,Wunderground v.1.15,2013-09-29 22:59:00,
2013-09-29 19:01:00,63.5,62.0,29.97,SSW,204,3.0,11.0,95,0.00,,,0.32,Wunderground v.1.15,2013-09-29 23:01:00,
2013-09-29 19:05:00,63.5,62.0,29.98,South,187,3.0,11.0,95,0.00,,,0.32,Wunderground v.1.15,2013-09-29 23:05:00,
2013-09-29 19:07:00,63.4,61.9,29.97,SSW,210,4.0,11.0,95,0.00,,,0.32,Wunderground v.1.15,2013-09-29 23:07:00,
2013-09-29 19:09:00,63.4,61.9,29.97,SSW,210,4.0,11.0,95,0.00,,,0.32,Wunderground v.1.15,2013-09-29 23:09:00,
2013-09-29 19:11:00,63.4,61.9,29.97,South,180,4.0,11.0,95,0.00,,,0.32,Wunderground v.1.15,2013-09-29 23:11:00,
2013-09-29 19:13:00,63.4,61.9,29.97,South,188,4.0,11.0,95,0.00,,,0.32,Wunderground v.1.15,2013-09-29 23:13:00,
2013-09-29 19:17:00,63.3,61.8,29.97,South,185,4.0,11.0,95,0.00,,,0.32,Wunderground v.1.15,2013-09-29 23:17:00,
2013-09-29 19:19:00,63.3,61.8,29.97,SSW,195,4.0,11.0,95,0.00,,,0.32,Wunderground v.1.15,2013-09-29 23:19:00,
2013-09-29 19:23:00,63.3,61.8,29.98,SSW,210,4.0,11.0,95,0.00,,,0.32,Wunderground v.1.15,2013-09-29 23:23:00,
2013-09-29 19:25:00,63.3,61.8,29.98,South,169,4.0,11.0,95,0.00,,,0.32,Wunderground v.1.15,2013-09-29 23:25:00,
2013-09-29 19:29:00,63.2,61.7,29.98,South,190,3.0,11.0,95,0.00,,,0.32,Wunderground v.1.15,2013-09-29 23:29:00,
2013-09-29 19:34:00,63.2,61.7,29.98,SSW,193,3.0,11.0,95,0.00,,,0.32,Wunderground v.1.15,2013-09-29 23:34:00,
2013-09-29 19:37:00,63.2,61.7,29.98,South,170,3.0,11.0,95,0.00,,,0.32,Wunderground v.1.15,2013-09-29 23:37:00,
2013-09-29 19:41:00,63.2,61.7,29.98,SSE,165,2.0,2.0,95,0.00,,,0.32,Wunderground v.1.15,2013-09-29 23:41:00,
2013-09-29 19:42:00,63.2,61.7,29.98,SSW,197,2.0,3.0,95,0.00,,,0.32,Wunderground v.1.15,2013-09-29 23:42:00,
2013-09-29 19:44:00,63.1,61.6,29.98,South,183,2.0,5.0,95,0.00,,,0.32,Wunderground v.1.15,2013-09-29 23:44:00,
2013-09-29 19:47:00,63.0,61.5,29.97,South,183,3.0,11.0,95,0.00,,,0.32,Wunderground v.1.15,2013-09-29 23:47:00,
2013-09-29 19:51:00,62.8,61.3,29.98,South,176,4.0,4.0,95,0.00,,,0.32,Wunderground v.1.15,2013-09-29 23:51:00,
2013-09-29 19:53:00,62.8,61.3,29.98,SSE,161,4.0,11.0,95,0.00,,,0.32,Wunderground v.1.15,2013-09-29 23:53:00,
2013-09-29 19:57:00,62.7,60.9,29.98,South,176,4.0,11.0,94,0.00,,,0.32,Wunderground v.1.15,2013-09-29 23:57:00,
2013-09-29 19:59:00,62.6,60.8,29.97,SE,125,4.0,11.0,94,0.00,,,0.32,Wunderground v.1.15,2013-09-29 23:59:00,
2013-09-29 20:01:00,62.6,60.8,29.98,SSW,192,4.0,11.0,94,0.00,,,0.32,Wunderground v.1.15,2013-09-30 00:01:00,
2013-09-29 20:03:00,62.6,61.1,29.98,SSW,199,4.0,11.0,95,0.00,,,0.32,Wunderground v.1.15,2013-09-30 00:03:00,
2013-09-29 20:05:00,62.5,61.0,29.98,SSW,195,4.0,11.0,95,0.00,,,0.32,Wunderground v.1.15,2013-09-30 00:05:00,
2013-09-29 20:07:00,62.5,61.0,29.98,South,191,4.0,11.0,95,0.00,,,0.32,Wunderground v.1.15,2013-09-30 00:07:00,
2013-09-29 20:11:00,62.5,61.0,29.98,South,171,5.0,5.0,95,0.00,,,0.32,Wunderground v.1.15,2013-09-30 00:11:00,
2013-09-29 20:13:00,62.5,61.0,29.98,SSW,203,5.0,11.0,95,0.00,,,0.32,Wunderground v.1.15,2013-09-30 00:13:00,
2013-09-29 20:14:00,62.5,61.0,29.98,South,187,5.0,11.0,95,0.00,,,0.32,Wunderground v.1.15,2013-09-30 00:14:00,
2013-09-29 20:19:00,62.4,60.9,29.98,South,178,5.0,11.0,95,0.00,,,0.32,Wunderground v.1.15,2013-09-30 00:19:00,
2013-09-29 20:23:00,62.4,60.9,29.98,SW,217,5.0,11.0,95,0.00,,,0.32,Wunderground v.1.15,2013-09-30 00:23:00,
2013-09-29 20:24:00,62.4,60.9,29.98,South,185,5.0,11.0,95,0.00,,,0.32,Wunderground v.1.15,2013-09-30 00:24:00,
2013-09-29 20:31:00,62.4,60.9,29.98,South,189,4.0,11.0,95,0.00,,,0.32,Wunderground v.1.15,2013-09-30 00:31:00,
2013-09-29 20:33:00,62.4,60.9,29.98,South,188,5.0,11.0,95,0.00,,,0.33,Wunderground v.1.15,2013-09-30 00:33:00,
2013-09-29 20:34:00,62.4,60.9,29.98,South,181,5.0,11.0,95,0.00,,,0.33,Wunderground v.1.15,2013-09-30 00:34:00,
2013-09-29 20:39:00,62.3,60.8,29.98,South,189,4.0,11.0,95,0.00,,,0.33,Wunderground v.1.15,2013-09-30 00:39:00,
2013-09-29 20:43:00,62.3,60.8,29.99,SSW,197,5.0,11.0,95,0.00,,,0.33,Wunderground v.1.15,2013-09-30 00:43:00,
2013-09-29 20:44:00,62.3,60.8,29.99,SSW,209,5.0,11.0,95,0.00,,,0.33,Wunderground v.1.15,2013-09-30 00:44:00,
2013-09-29 20:47:00,62.3,60.8,29.99,SSW,209,5.0,11.0,95,0.00,,,0.33,Wunderground v.1.15,2013-09-30 00:47:00,
2013-09-29 20:49:00,62.3,60.8,29.99,SW,216,5.0,11.0,95,0.00,,,0.33,Wunderground v.1.15,2013-09-30 00:49:00,
2013-09-29 20:51:00,62.3,60.8,29.99,South,182,5.0,11.0,95,0.00,,,0.33,Wunderground v.1.15,2013-09-30 00:51:00,
2013-09-29 20:57:00,62.3,60.8,29.99,SSW,206,5.0,11.0,95,0.00,,,0.33,Wunderground v.1.15,2013-09-30 00:57:00,
2013-09-29 20:59:00,62.3,60.8,29.99,South,190,5.0,11.0,95,0.00,,,0.33,Wunderground v.1.15,2013-09-30 00:59:00,
2013-09-29 21:03:00,62.3,60.8,29.99,SW,231,4.0,5.0,95,0.00,,,0.33,Wunderground v.1.15,2013-09-30 01:03:00,
2013-09-29 21:05:00,62.3,60.8,29.99,South,191,4.0,11.0,95,0.00,,,0.33,Wunderground v.1.15,2013-09-30 01:05:00,
2013-09-29 21:07:00,62.3,60.8,29.99,SW,218,4.0,11.0,95,0.00,,,0.33,Wunderground v.1.15,2013-09-30 01:07:00,
2013-09-29 21:13:00,62.3,60.8,29.99,SSW,193,4.0,11.0,95,0.00,,,0.33,Wunderground v.1.15,2013-09-30 01:13:00,
2013-09-29 21:15:00,62.3,60.8,29.99,SSE,167,3.0,11.0,95,0.00,,,0.33,Wunderground v.1.15,2013-09-30 01:15:00,
2013-09-29 21:17:00,62.3,60.8,29.99,South,182,3.0,11.0,95,0.00,,,0.33,Wunderground v.1.15,2013-09-30 01:17:00,
2013-09-29 21:21:00,62.3,60.8,29.99,SSW,201,2.0,11.0,95,0.00,,,0.33,Wunderground v.1.15,2013-09-30 01:21:00,
2013-09-29 21:23:00,62.3,60.8,29.99,South,191,2.0,11.0,95,0.00,,,0.33,Wunderground v.1.15,2013-09-30 01:23:00,
2013-09-29 21:26:00,62.3,60.8,29.99,South,184,2.0,11.0,95,0.00,,,0.33,Wunderground v.1.15,2013-09-30 01:26:00,
2013-09-29 21:29:00,62.3,60.8,29.99,South,185,2.0,11.0,95,0.00,,,0.33,Wunderground v.1.15,2013-09-30 01:29:00,
2013-09-29 21:33:00,62.3,60.8,29.99,South,190,2.0,3.0,95,0.00,,,0.33,Wunderground v.1.15,2013-09-30 01:33:00,
2013-09-29 21:34:00,62.3,60.8,29.99,SSW,198,2.0,11.0,95,0.00,,,0.33,Wunderground v.1.15,2013-09-30 01:34:00,
2013-09-29 21:36:00,62.3,60.8,29.99,SSW,198,2.0,11.0,95,0.00,,,0.33,Wunderground v.1.15,2013-09-30 01:36:00,
2013-09-29 21:41:00,62.3,60.8,29.99,SSE,163,1.0,11.0,95,0.00,,,0.33,Wunderground v.1.15,2013-09-30 01:41:00,
2013-09-29 21:43:00,62.3,60.8,29.99,SSE,164,1.0,11.0,95,0.00,,,0.33,Wunderground v.1.15,2013-09-30 01:43:00,
2013-09-29 21:45:00,62.3,60.8,29.99,SSE,165,1.0,11.0,95,0.00,,,0.33,Wunderground v.1.15,2013-09-30 01:45:00,
2013-09-29 21:47:00,62.3,60.8,29.99,SSE,165,1.0,11.0,95,0.00,,,0.33,Wunderground v.1.15,2013-09-30 01:47:00,
2013-09-29 21:51:00,62.2,60.8,29.99,South,174,1.0,11.0,95,0.00,,,0.33,Wunderground v.1.15,2013-09-30 01:51:00,
2013-09-29 21:53:00,62.2,60.8,29.99,South,182,1.0,11.0,95,0.00,,,0.33,Wunderground v.1.15,2013-09-30 01:53:00,
2013-09-29 21:55:00,62.2,60.8,29.99,South,179,1.0,11.0,95,0.00,,,0.33,Wunderground v.1.15,2013-09-30 01:55:00,
2013-09-29 21:59:00,62.2,60.8,29.99,South,191,2.0,11.0,95,0.00,,,0.33,Wunderground v.1.15,2013-09-30 01:59:00,
2013-09-29 22:01:00,62.2,60.8,29.99,South,174,3.0,11.0,95,0.00,,,0.33,Wunderground v.1.15,2013-09-30 02:01:00,
2013-09-29 22:03:00,62.2,60.8,29.99,SSW,204,4.0,11.0,95,0.00,,,0.33,Wunderground v.1.15,2013-09-30 02:03:00,
2013-09-29 22:07:00,62.2,60.8,29.99,SSW,208,3.0,11.0,95,0.00,,,0.33,Wunderground v.1.15,2013-09-30 02:07:00,
2013-09-29 22:10:00,62.2,60.8,29.99,South,189,3.0,3.0,95,0.00,,,0.33,Wunderground v.1.15,2013-09-30 02:10:00,
2013-09-29 22:12:00,62.2,60.8,29.99,South,190,3.0,11.0,95,0.00,,,0.33,Wunderground v.1.15,2013-09-30 02:12:00,
2013-09-29 22:15:00,62.2,60.8,29.99,SSW,192,2.0,11.0,95,0.00,,,0.33,Wunderground v.1.15,2013-09-30 02:15:00,
2013-09-29 22:17:00,62.2,60.8,29.99,SSW,192,2.0,11.0,95,0.00,,,0.33,Wunderground v.1.15,2013-09-30 02:17:00,
2013-09-29 22:19:00,62.2,60.8,29.99,SSW,194,2.0,11.0,95,0.00,,,0.33,Wunderground v.1.15,2013-09-30 02:19:00,
2013-09-29 22:21:00,62.2,60.8,29.99,South,181,2.0,2.0,95,0.00,,,0.33,Wunderground v.1.15,2013-09-30 02:21:00,
2013-09-29 22:22:00,62.2,60.8,29.99,South,181,2.0,11.0,95,0.00,,,0.33,Wunderground v.1.15,2013-09-30 02:22:00,
2013-09-29 22:27:00,62.2,60.8,29.99,South,187,2.0,11.0,95,0.00,,,0.33,Wunderground v.1.15,2013-09-30 02:27:00,
2013-09-29 22:29:00,62.2,60.8,29.99,South,178,2.0,11.0,95,0.00,,,0.33,Wunderground v.1.15,2013-09-30 02:29:00,
2013-09-29 22:31:00,62.2,60.8,29.99,South,178,2.0,2.0,95,0.00,,,0.33,Wunderground v.1.15,2013-09-30 02:31:00,
2013-09-29 22:37:00,62.2,60.8,29.99,South,183,1.0,11.0,95,0.00,,,0.33,Wunderground v.1.15,2013-09-30 02:37:00,
2013-09-29 22:39:00,62.2,60.8,29.99,South,183,1.0,11.0,95,0.00,,,0.33,Wunderground v.1.15,2013-09-30 02:39:00,
2013-09-29 22:41:00,62.2,60.8,29.99,South,183,1.0,1.0,95,0.00,,,0.33,Wunderground v.1.15,2013-09-30 02:41:00,
2013-09-29 22:43:00,62.2,60.8,29.99,South,183,1.0,11.0,95,0.00,,,0.33,Wunderground v.1.15,2013-09-30 02:43:00,
2013-09-29 22:45:00,62.2,60.8,29.99,South,183,1.0,11.0,95,0.00,,,0.33,Wunderground v.1.15,2013-09-30 02:45:00,
2013-09-29 22:49:00,62.2,60.8,29.99,SSW,212,1.0,11.0,95,0.00,,,0.33,Wunderground v.1.15,2013-09-30 02:49:00,
2013-09-29 22:51:00,62.2,60.8,29.99,SSW,200,1.0,11.0,95,0.00,,,0.33,Wunderground v.1.15,2013-09-30 02:51:00,
2013-09-29 22:53:00,62.2,60.8,29.99,South,186,2.0,11.0,95,0.00,,,0.33,Wunderground v.1.15,2013-09-30 02:53:00,
2013-09-29 22:57:00,62.2,60.8,29.99,SSW,210,3.0,11.0,95,0.00,,,0.33,Wunderground v.1.15,2013-09-30 02:57:00,
2013-09-29 22:59:00,62.2,60.8,29.99,South,182,4.0,11.0,95,0.00,,,0.33,Wunderground v.1.15,2013-09-30 02:59:00,
2013-09-29 23:01:00,62.2,60.8,29.99,South,189,4.0,4.0,95,0.00,,,0.33,Wunderground v.1.15,2013-09-30 03:01:00,
2013-09-29 23:03:00,62.2,60.8,29.99,South,189,3.0,11.0,95,0.00,,,0.33,Wunderground v.1.15,2013-09-30 03:03:00,
2013-09-29 23:04:00,62.2,60.8,29.99,South,189,3.0,11.0,95,0.00,,,0.33,Wunderground v.1.15,2013-09-30 03:04:00,
2013-09-29 23:07:00,62.2,60.8,29.99,South,188,3.0,11.0,95,0.00,,,0.33,Wunderground v.1.15,2013-09-30 03:07:00,
2013-09-29 23:09:00,62.2,60.8,29.99,South,189,2.0,11.0,95,0.00,,,0.33,Wunderground v.1.15,2013-09-30 03:09:00,
2013-09-29 23:11:00,62.2,60.8,29.99,South,189,2.0,2.0,95,0.00,,,0.33,Wunderground v.1.15,2013-09-30 03:11:00,
2013-09-29 23:15:00,62.2,60.8,29.99,South,189,1.0,11.0,95,0.00,,,0.33,Wunderground v.1.15,2013-09-30 03:15:00,
2013-09-29 23:17:00,62.2,60.8,29.98,SSW,197,1.0,11.0,95,0.00,,,0.33,Wunderground v.1.15,2013-09-30 03:17:00,
2013-09-29 23:21:00,62.2,60.8,29.99,SSW,197,1.0,11.0,95,0.00,,,0.33,Wunderground v.1.15,2013-09-30 03:21:00,
2013-09-29 23:23:00,62.2,60.8,29.99,SSW,197,1.0,11.0,95,0.00,,,0.33,Wunderground v.1.15,2013-09-30 03:23:00,
2013-09-29 23:25:00,62.2,60.8,29.99,South,190,1.0,11.0,95,0.00,,,0.33,Wunderground v.1.15,2013-09-30 03:25:00,
2013-09-29 23:31:00,62.2,60.8,29.99,South,190,1.0,11.0,95,0.00,,,0.33,Wunderground v.1.15,2013-09-30 03:31:00,
2013-09-29 23:35:00,62.1,60.7,29.98,SW,235,1.0,11.0,95,0.00,,,0.33,Wunderground v.1.15,2013-09-30 03:35:00,
2013-09-29 23:37:00,62.1,60.7,29.98,SSW,195,2.0,11.0,95,0.00,,,0.33,Wunderground v.1.15,2013-09-30 03:37:00,
2013-09-29 23:43:00,62.1,60.7,29.98,South,178,3.0,11.0,95,0.00,,,0.33,Wunderground v.1.15,2013-09-30 03:43:00,
2013-09-29 23:45:00,62.2,60.8,29.98,South,177,3.0,11.0,95,0.00,,,0.33,Wunderground v.1.15,2013-09-30 03:45:00,
2013-09-29 23:49:00,62.1,60.7,29.98,SSE,159,2.0,11.0,95,0.00,,,0.33,Wunderground v.1.15,2013-09-30 03:49:00,
2013-09-29 23:51:00,62.1,60.7,29.98,SSE,166,2.0,11.0,95,0.00,,,0.33,Wunderground v.1.15,2013-09-30 03:51:00,
2013-09-29 23:55:00,62.1,60.7,29.98,South,181,2.0,11.0,95,0.00,,,0.33,Wunderground v.1.15,2013-09-30 03:55:00,
2013-09-29 23:57:00,62.1,60.7,29.98,South,191,2.0,11.0,95,0.00,,,0.33,Wunderground v.1.15,2013-09-30 03:57:00,
2013-09-29 23:59:00,62.1,60.7,29.98,South,191,3.0,11.0,95,0.00,,,0.33,Wunderground v.1.15,2013-09-30 03:59:00,